Year,Month,Day,Hour,Minute,Value (Times are PST for temperature in C)
2010,09,25,08,14,12.30
2010,09,25,08,15,12.30
2010,09,25,08,16,12.30
2010,09,25,08,17,12.30
2010,09,25,08,18,12.30
2010,09,25,08,19,12.40
2010,09,25,08,20,12.40
2010,09,25,08,21,12.50
2010,09,25,08,22,12.60
2010,09,25,08,23,12.60
2010,09,25,08,24,12.60
2010,09,25,08,25,12.70
2010,09,25,08,26,12.70
2010,09,25,08,27,12.70
2010,09,25,08,28,12.80
2010,09,25,08,29,12.80
2010,09,25,08,30,12.80
2010,09,25,08,31,12.80
2010,09,25,08,32,12.90
2010,09,25,08,33,12.90
2010,09,25,08,34,13.00
2010,09,25,08,35,13.00
2010,09,25,08,36,13.00
2010,09,25,08,37,13.10
2010,09,25,08,38,13.10
2010,09,25,08,39,13.10
2010,09,25,08,40,13.10
2010,09,25,08,41,13.10
2010,09,25,08,42,13.10
2010,09,25,08,43,13.10
2010,09,25,08,44,13.10
2010,09,25,08,45,13.10
2010,09,25,08,46,13.10
2010,09,25,08,47,13.20
2010,09,25,08,48,13.20
2010,09,25,08,49,13.20
2010,09,25,08,50,13.30
2010,09,25,08,51,13.30
2010,09,25,08,52,13.30
2010,09,25,08,53,13.30
2010,09,25,08,54,13.30
2010,09,25,08,55,13.30
2010,09,25,08,56,13.30
2010,09,25,08,57,13.40
2010,09,25,08,58,13.40
2010,09,25,08,59,13.40
2010,09,25,09,00,13.40
2010,09,25,09,01,13.40
2010,09,25,09,02,13.40
2010,09,25,09,03,13.50
2010,09,25,09,04,13.50
2010,09,25,09,05,13.50
2010,09,25,09,06,13.60
2010,09,25,09,07,13.60
2010,09,25,09,08,13.60
2010,09,25,09,09,13.70
2010,09,25,09,10,13.70
2010,09,25,09,11,13.70
2010,09,25,09,12,13.80
2010,09,25,09,13,13.80
2010,09,25,09,14,13.80
2010,09,25,09,15,13.90
2010,09,25,09,16,13.90
2010,09,25,09,17,13.90
2010,09,25,09,18,13.90
2010,09,25,09,19,14.00
2010,09,25,09,20,14.00
2010,09,25,09,21,14.00
2010,09,25,09,22,14.10
2010,09,25,09,23,14.10
2010,09,25,09,24,14.20
2010,09,25,09,25,14.20
2010,09,25,09,26,14.20
2010,09,25,09,27,14.20
2010,09,25,09,28,14.30
2010,09,25,09,29,14.40
2010,09,25,09,30,14.40
2010,09,25,09,31,14.50
2010,09,25,09,32,14.70
2010,09,25,09,33,14.70
2010,09,25,09,34,14.90
2010,09,25,09,35,15.00
2010,09,25,09,36,15.00
2010,09,25,09,37,15.10
2010,09,25,09,38,15.20
2010,09,25,09,39,15.30
2010,09,25,09,40,15.40
2010,09,25,09,41,15.40
2010,09,25,09,42,15.50
2010,09,25,09,43,15.60
2010,09,25,09,44,15.60
2010,09,25,09,45,15.70
2010,09,25,09,46,15.70
2010,09,25,09,47,15.70
2010,09,25,09,48,15.70
2010,09,25,09,49,15.80
2010,09,25,09,50,15.80
2010,09,25,09,51,15.80
2010,09,25,09,52,15.80
2010,09,25,09,53,15.80
2010,09,25,09,54,15.80
2010,09,25,09,55,15.80
2010,09,25,09,56,15.80
2010,09,25,09,57,15.90
2010,09,25,09,58,15.90
2010,09,25,09,59,15.90
2010,09,25,10,00,15.90
2010,09,25,10,01,15.90
2010,09,25,10,02,15.90
2010,09,25,10,03,16.00
2010,09,25,10,04,16.00
2010,09,25,10,05,16.00
2010,09,25,10,06,16.00
2010,09,25,10,07,16.10
2010,09,25,10,08,16.10
2010,09,25,10,09,16.10
2010,09,25,10,10,16.10
2010,09,25,10,11,16.10
2010,09,25,10,12,16.10
2010,09,25,10,13,16.10
2010,09,25,10,14,16.10
2010,09,25,10,15,16.10
2010,09,25,10,16,16.10
2010,09,25,10,17,16.10
2010,09,25,10,18,16.10
2010,09,25,10,19,16.20
2010,09,25,10,20,16.20
2010,09,25,10,21,16.20
2010,09,25,10,22,16.20
2010,09,25,10,23,16.20
2010,09,25,10,24,16.30
2010,09,25,10,25,16.30
2010,09,25,10,26,16.30
2010,09,25,10,27,16.30
2010,09,25,10,28,16.30
2010,09,25,10,29,16.40
2010,09,25,10,30,16.40
2010,09,25,10,31,16.40
2010,09,25,10,32,16.40
2010,09,25,10,33,16.40
2010,09,25,10,34,16.40
2010,09,25,10,35,16.50
2010,09,25,10,36,16.40
2010,09,25,10,37,16.40
2010,09,25,10,38,16.40
2010,09,25,10,39,16.40
2010,09,25,10,40,16.40
2010,09,25,10,41,16.40
2010,09,25,10,42,16.40
2010,09,25,10,43,16.40
2010,09,25,10,44,16.40
2010,09,25,10,45,16.50
2010,09,25,10,46,16.50
2010,09,25,10,47,16.50
2010,09,25,10,48,16.60
2010,09,25,10,49,16.70
2010,09,25,10,50,16.70
2010,09,25,10,51,16.80
2010,09,25,10,52,16.80
2010,09,25,10,53,16.90
2010,09,25,10,54,16.90
2010,09,25,10,55,17.00
2010,09,25,10,56,17.10
2010,09,25,10,57,17.10
2010,09,25,10,58,17.10
2010,09,25,10,59,17.10
2010,09,25,11,00,17.20
2010,09,25,11,01,17.20
2010,09,25,11,02,17.20
2010,09,25,11,03,17.20
2010,09,25,11,04,17.30
2010,09,25,11,05,17.30
2010,09,25,11,06,17.40
2010,09,25,11,07,17.40
2010,09,25,11,08,17.50
2010,09,25,11,09,17.60
2010,09,25,11,10,17.60
2010,09,25,11,11,17.70
2010,09,25,11,12,17.70
2010,09,25,11,13,17.70
2010,09,25,11,14,17.80
2010,09,25,11,15,17.80
2010,09,25,11,16,17.80
2010,09,25,11,17,17.80
2010,09,25,11,18,17.90
2010,09,25,11,19,17.90
2010,09,25,11,20,18.00
2010,09,25,11,21,18.00
2010,09,25,11,22,18.00
2010,09,25,11,23,18.00
2010,09,25,11,24,18.10
2010,09,25,11,25,18.10
2010,09,25,11,26,18.10
2010,09,25,11,27,18.20
2010,09,25,11,28,18.20
2010,09,25,11,29,18.20
2010,09,25,11,30,18.30
2010,09,25,11,31,18.30
2010,09,25,11,32,18.40
2010,09,25,11,33,18.40
2010,09,25,11,34,18.40
2010,09,25,11,35,18.40
2010,09,25,11,36,18.40
2010,09,25,11,37,18.50
2010,09,25,11,38,18.50
2010,09,25,11,39,18.50
2010,09,25,11,40,18.60
2010,09,25,11,41,18.60
2010,09,25,11,42,18.70
2010,09,25,11,43,18.80
2010,09,25,11,44,18.80
2010,09,25,11,45,18.90
2010,09,25,11,46,18.90
2010,09,25,11,47,19.00
2010,09,25,11,48,19.00
2010,09,25,11,49,19.10
2010,09,25,11,50,19.10
2010,09,25,11,51,19.10
2010,09,25,11,52,19.10
2010,09,25,11,53,19.20
2010,09,25,11,54,19.20
2010,09,25,11,55,19.30
2010,09,25,11,56,19.30
2010,09,25,11,57,19.30
2010,09,25,11,58,19.30
2010,09,25,11,59,19.30
2010,09,25,12,00,19.40
2010,09,25,12,01,19.40
2010,09,25,12,02,19.40
2010,09,25,12,03,19.50
2010,09,25,12,04,19.60
2010,09,25,12,05,19.60
2010,09,25,12,06,19.60
2010,09,25,12,07,19.60
2010,09,25,12,08,19.70
2010,09,25,12,09,19.70
2010,09,25,12,10,19.70
2010,09,25,12,11,19.70
2010,09,25,12,12,19.70
2010,09,25,12,13,19.70
2010,09,25,12,14,19.60
2010,09,25,12,15,19.60
2010,09,25,12,16,19.60
2010,09,25,12,17,19.60
2010,09,25,12,18,19.60
2010,09,25,12,19,19.70
2010,09,25,12,20,19.70
2010,09,25,12,21,19.70
2010,09,25,12,22,19.70
2010,09,25,12,23,19.70
2010,09,25,12,24,19.70
2010,09,25,12,25,19.60
2010,09,25,12,26,19.60
2010,09,25,12,27,19.60
2010,09,25,12,28,19.60
2010,09,25,12,29,19.60
2010,09,25,12,30,19.50
2010,09,25,12,31,19.50
2010,09,25,12,32,19.40
2010,09,25,12,33,19.40
2010,09,25,12,34,19.40
2010,09,25,12,35,19.30
2010,09,25,12,36,19.30
2010,09,25,12,37,19.30
2010,09,25,12,38,19.30
2010,09,25,12,39,19.30
2010,09,25,12,40,19.30
2010,09,25,12,41,19.40
2010,09,25,12,42,19.40
2010,09,25,12,43,19.50
2010,09,25,12,44,19.60
2010,09,25,12,45,19.60
2010,09,25,12,46,19.60
2010,09,25,12,47,19.70
2010,09,25,12,48,19.70
2010,09,25,12,49,19.80
2010,09,25,12,50,19.80
2010,09,25,12,51,19.90
2010,09,25,12,52,20.00
2010,09,25,12,53,20.10
2010,09,25,12,54,20.20
2010,09,25,12,55,20.10
2010,09,25,12,56,20.10
2010,09,25,12,57,20.10
2010,09,25,12,58,20.10
2010,09,25,12,59,20.10
2010,09,25,13,00,20.10
2010,09,25,13,01,20.00
2010,09,25,13,02,20.00
2010,09,25,13,03,19.90
2010,09,25,13,04,19.90
2010,09,25,13,05,19.80
2010,09,25,13,06,19.80
2010,09,25,13,07,19.80
2010,09,25,13,08,19.90
2010,09,25,13,09,19.90
2010,09,25,13,10,20.00
2010,09,25,13,11,20.10
2010,09,25,13,12,20.20
2010,09,25,13,13,20.20
2010,09,25,13,14,20.20
2010,09,25,13,15,20.20
2010,09,25,13,16,20.20
2010,09,25,13,17,20.20
2010,09,25,13,18,20.30
2010,09,25,13,19,20.40
2010,09,25,13,20,20.40
2010,09,25,13,21,20.40
2010,09,25,13,22,20.40
2010,09,25,13,23,20.40
2010,09,25,13,24,20.30
2010,09,25,13,25,20.30
2010,09,25,13,26,20.30
2010,09,25,13,27,20.30
2010,09,25,13,28,20.30
2010,09,25,13,29,20.30
2010,09,25,13,30,20.30
2010,09,25,13,31,20.30
2010,09,25,13,32,20.40
2010,09,25,13,33,20.40
2010,09,25,13,34,20.50
2010,09,25,13,35,20.60
2010,09,25,13,36,20.60
2010,09,25,13,37,20.60
2010,09,25,13,38,20.70
2010,09,25,13,39,20.70
2010,09,25,13,40,20.70
2010,09,25,13,41,20.60
2010,09,25,13,42,20.60
2010,09,25,13,43,20.60
2010,09,25,13,44,20.60
2010,09,25,13,45,20.60
2010,09,25,13,46,20.60
2010,09,25,13,47,20.60
2010,09,25,13,48,20.70
2010,09,25,13,49,20.70
2010,09,25,13,50,20.90
2010,09,25,13,51,21.00
2010,09,25,13,52,21.10
2010,09,25,13,53,21.20
2010,09,25,13,54,21.20
2010,09,25,13,55,21.30
2010,09,25,13,56,21.40
2010,09,25,13,57,21.50
2010,09,25,13,58,21.60
2010,09,25,13,59,21.60
2010,09,25,14,00,21.70
2010,09,25,14,01,21.70
2010,09,25,14,02,21.70
2010,09,25,14,03,21.70
2010,09,25,14,04,21.70
2010,09,25,14,05,21.60
2010,09,25,14,06,21.60
2010,09,25,14,07,21.60
2010,09,25,14,08,21.60
2010,09,25,14,09,21.50
2010,09,25,14,10,21.50
2010,09,25,14,11,21.60
2010,09,25,14,12,21.60
2010,09,25,14,13,21.70
2010,09,25,14,14,21.80
2010,09,25,14,15,21.90
2010,09,25,14,16,22.00
2010,09,25,14,17,22.10
2010,09,25,14,18,22.20
2010,09,25,14,19,22.30
2010,09,25,14,20,22.40
2010,09,25,14,21,22.60
2010,09,25,14,22,22.70
2010,09,25,14,23,22.80
2010,09,25,14,24,22.80
2010,09,25,14,25,22.80
2010,09,25,14,26,22.90
2010,09,25,14,27,22.90
2010,09,25,14,28,22.90
2010,09,25,14,29,22.90
2010,09,25,14,30,22.90
2010,09,25,14,31,22.90
2010,09,25,14,32,23.00
2010,09,25,14,33,23.00
2010,09,25,14,34,23.10
2010,09,25,14,35,23.10
2010,09,25,14,36,23.00
2010,09,25,14,37,23.00
2010,09,25,14,38,22.90
2010,09,25,14,39,22.80
2010,09,25,14,40,22.70
2010,09,25,14,41,22.60
2010,09,25,14,42,22.60
2010,09,25,14,43,22.50
2010,09,25,14,44,22.40
2010,09,25,14,45,22.40
2010,09,25,14,46,22.50
2010,09,25,14,47,22.60
2010,09,25,14,48,22.50
2010,09,25,14,49,22.60
2010,09,25,14,50,22.60
2010,09,25,14,51,22.60
2010,09,25,14,52,22.70
2010,09,25,14,53,22.80
2010,09,25,14,54,22.80
2010,09,25,14,55,22.80
2010,09,25,14,56,22.90
2010,09,25,14,57,23.00
2010,09,25,14,58,23.00
2010,09,25,14,59,23.00
2010,09,25,15,00,22.90
2010,09,25,15,01,22.90
2010,09,25,15,02,22.80
2010,09,25,15,03,22.70
2010,09,25,15,04,22.70
2010,09,25,15,05,22.60
2010,09,25,15,06,22.50
2010,09,25,15,07,22.40
2010,09,25,15,08,22.30
2010,09,25,15,09,22.20
2010,09,25,15,10,22.20
2010,09,25,15,11,22.20
2010,09,25,15,12,22.30
2010,09,25,15,13,22.30
2010,09,25,15,14,22.40
2010,09,25,15,15,22.40
2010,09,25,15,16,22.40
2010,09,25,15,17,22.40
2010,09,25,15,18,22.50
2010,09,25,15,19,22.50
2010,09,25,15,20,22.60
2010,09,25,15,21,22.60
2010,09,25,15,22,22.50
2010,09,25,15,23,22.40
2010,09,25,15,24,22.40
2010,09,25,15,25,22.30
2010,09,25,15,26,22.20
2010,09,25,15,27,22.20
2010,09,25,15,28,22.20
2010,09,25,15,29,22.10
2010,09,25,15,30,22.20
2010,09,25,15,31,22.30
2010,09,25,15,32,22.30
2010,09,25,15,33,22.30
2010,09,25,15,34,22.30
2010,09,25,15,35,22.30
2010,09,25,15,36,22.30
2010,09,25,15,37,22.20
2010,09,25,15,38,22.20
2010,09,25,15,39,22.20
2010,09,25,15,40,22.20
2010,09,25,15,41,22.30
2010,09,25,15,42,22.30
2010,09,25,15,43,22.30
2010,09,25,15,44,22.40
2010,09,25,15,45,22.50
2010,09,25,15,46,22.60
2010,09,25,15,47,22.70
2010,09,25,15,48,22.80
2010,09,25,15,49,22.80
2010,09,25,15,50,22.80
2010,09,25,15,51,22.80
2010,09,25,15,52,22.80
2010,09,25,15,53,22.80
2010,09,25,15,54,22.90
2010,09,25,15,55,22.90
2010,09,25,15,56,22.90
2010,09,25,15,57,22.90
2010,09,25,15,58,22.90
2010,09,25,15,59,22.90
2010,09,25,16,00,22.90
2010,09,25,16,01,22.90
2010,09,25,16,02,23.00
2010,09,25,16,03,23.00
2010,09,25,16,04,23.00
2010,09,25,16,05,23.00
2010,09,25,16,06,23.00
2010,09,25,16,07,23.00
2010,09,25,16,08,22.90
2010,09,25,16,09,22.80
2010,09,25,16,10,22.80
2010,09,25,16,11,22.80
2010,09,25,16,12,22.80
2010,09,25,16,13,22.70
2010,09,25,16,14,22.70
2010,09,25,16,15,22.70
2010,09,25,16,16,22.70
2010,09,25,16,17,22.70
2010,09,25,16,18,22.60
2010,09,25,16,19,22.70
2010,09,25,16,20,22.70
2010,09,25,16,21,22.70
2010,09,25,16,22,22.70
2010,09,25,16,23,22.60
2010,09,25,16,24,22.40
2010,09,25,16,25,22.30
2010,09,25,16,26,22.20
2010,09,25,16,27,22.00
2010,09,25,16,28,21.90
2010,09,25,16,29,21.80
2010,09,25,16,30,21.60
2010,09,25,16,31,21.50
2010,09,25,16,32,21.40
2010,09,25,16,33,21.30
2010,09,25,16,34,21.30
2010,09,25,16,35,21.30
2010,09,25,16,36,21.40
2010,09,25,16,37,21.50
2010,09,25,16,38,21.60
2010,09,25,16,39,21.70
2010,09,25,16,40,21.80
2010,09,25,16,41,21.90
2010,09,25,16,42,21.90
2010,09,25,16,43,22.00
2010,09,25,16,44,22.10
2010,09,25,16,45,22.10
2010,09,25,16,46,22.10
2010,09,25,16,47,22.10
2010,09,25,16,48,22.00
2010,09,25,16,49,21.90
2010,09,25,16,50,21.80
2010,09,25,16,51,21.80
2010,09,25,16,52,21.70
2010,09,25,16,53,21.70
2010,09,25,16,54,21.70
2010,09,25,16,55,21.60
2010,09,25,16,56,21.60
2010,09,25,16,57,21.60
2010,09,25,16,58,21.60
2010,09,25,16,59,21.50
2010,09,25,17,00,21.50
2010,09,25,17,01,21.50
2010,09,25,17,02,21.50
2010,09,25,17,03,21.50
2010,09,25,17,04,21.40
2010,09,25,17,05,21.40
2010,09,25,17,06,21.40
2010,09,25,17,07,21.40
2010,09,25,17,08,21.40
2010,09,25,17,09,21.30
2010,09,25,17,10,21.30
2010,09,25,17,11,21.30
2010,09,25,17,12,21.30
2010,09,25,17,13,21.20
2010,09,25,17,14,21.20
2010,09,25,17,15,21.10
2010,09,25,17,16,21.10
2010,09,25,17,17,21.00
2010,09,25,17,18,20.90
2010,09,25,17,19,20.90
2010,09,25,17,20,20.90
2010,09,25,17,21,21.00
2010,09,25,17,22,21.00
2010,09,25,17,23,21.10
2010,09,25,17,24,21.10
2010,09,25,17,25,21.20
2010,09,25,17,26,21.30
2010,09,25,17,27,21.40
2010,09,25,17,28,21.40
2010,09,25,17,29,21.40
2010,09,25,17,30,21.50
2010,09,25,17,31,21.50
2010,09,25,17,32,21.60
2010,09,25,17,33,21.70
2010,09,25,17,34,21.60
2010,09,25,17,35,21.50
2010,09,25,17,36,21.40
2010,09,25,17,37,21.30
2010,09,25,17,38,21.20
2010,09,25,17,39,21.20
2010,09,25,17,40,21.10
2010,09,25,17,41,21.00
2010,09,25,17,42,21.00
2010,09,25,17,43,21.00
2010,09,25,17,44,20.90
2010,09,25,17,45,20.90
2010,09,25,17,46,20.90
2010,09,25,17,47,20.90
2010,09,25,17,48,20.90
2010,09,25,17,49,21.00
2010,09,25,17,50,21.00
2010,09,25,17,51,20.90
2010,09,25,17,52,20.90
2010,09,25,17,53,20.90
2010,09,25,17,54,20.80
2010,09,25,17,55,20.70
2010,09,25,17,56,20.60
2010,09,25,17,57,20.50
2010,09,25,17,58,20.30
2010,09,25,17,59,20.20
2010,09,25,18,00,20.10
2010,09,25,18,01,20.00
2010,09,25,18,02,19.90
2010,09,25,18,03,19.90
2010,09,25,18,04,19.80
2010,09,25,18,05,19.80
2010,09,25,18,06,19.70
2010,09,25,18,07,19.70
2010,09,25,18,08,19.70
2010,09,25,18,09,19.60
2010,09,25,18,10,19.60
2010,09,25,18,11,19.50
2010,09,25,18,12,19.40
2010,09,25,18,13,19.40
2010,09,25,18,14,19.30
2010,09,25,18,15,19.30
2010,09,25,18,16,19.30
2010,09,25,18,17,19.20
2010,09,25,18,18,19.20
2010,09,25,18,19,19.10
2010,09,25,18,20,19.10
2010,09,25,18,21,19.00
2010,09,25,18,22,19.00
2010,09,25,18,23,18.90
2010,09,25,18,24,18.90
2010,09,25,18,25,18.90
2010,09,25,18,26,18.80
2010,09,25,18,27,18.80
2010,09,25,18,28,18.80
2010,09,25,18,29,18.80
2010,09,25,18,30,18.80
2010,09,25,18,31,18.70
2010,09,25,18,32,18.70
2010,09,25,18,33,18.70
2010,09,25,18,34,18.60
2010,09,25,18,35,18.60
2010,09,25,18,36,18.60
2010,09,25,18,37,18.50
2010,09,25,18,38,18.50
2010,09,25,18,39,18.40
2010,09,25,18,40,18.40
2010,09,25,18,41,18.30
2010,09,25,18,42,18.30
2010,09,25,18,43,18.30
2010,09,25,18,44,18.20
2010,09,25,18,45,18.20
2010,09,25,18,46,18.20
2010,09,25,18,47,18.20
2010,09,25,18,48,18.20
2010,09,25,18,49,18.20
2010,09,25,18,50,18.20
2010,09,25,18,51,18.20
2010,09,25,18,52,18.20
2010,09,25,18,53,18.10
2010,09,25,18,54,18.10
2010,09,25,18,55,18.10
2010,09,25,18,56,18.10
2010,09,25,18,57,18.10
2010,09,25,18,58,18.10
2010,09,25,18,59,18.10
2010,09,25,19,00,18.00
2010,09,25,19,01,18.00
2010,09,25,19,02,18.00
2010,09,25,19,03,18.00
2010,09,25,19,04,18.00
2010,09,25,19,05,17.90
2010,09,25,19,06,17.90
2010,09,25,19,07,17.90
2010,09,25,19,08,17.90
2010,09,25,19,09,17.90
2010,09,25,19,10,17.90
2010,09,25,19,11,17.90
2010,09,25,19,12,17.90
2010,09,25,19,13,17.90
2010,09,25,19,14,17.90
2010,09,25,19,15,17.90
2010,09,25,19,16,17.80
2010,09,25,19,17,17.80
2010,09,25,19,18,17.80
2010,09,25,19,19,17.80
2010,09,25,19,20,17.80
2010,09,25,19,21,17.80
2010,09,25,19,22,17.80
2010,09,25,19,23,17.70
2010,09,25,19,24,17.70
2010,09,25,19,25,17.70
2010,09,25,19,26,17.70
2010,09,25,19,27,17.70
2010,09,25,19,28,17.70
2010,09,25,19,29,17.60
2010,09,25,19,30,17.60
2010,09,25,19,31,17.70
2010,09,25,19,32,17.70
2010,09,25,19,33,17.70
2010,09,25,19,34,17.70
2010,09,25,19,35,17.70
2010,09,25,19,36,17.70
2010,09,25,19,37,17.70
2010,09,25,19,38,17.60
2010,09,25,19,39,17.60
2010,09,25,19,40,17.60
2010,09,25,19,41,17.50
2010,09,25,19,42,17.50
2010,09,25,19,43,17.50
2010,09,25,19,44,17.40
2010,09,25,19,45,17.40
2010,09,25,19,46,17.40
2010,09,25,19,47,17.30
2010,09,25,19,48,17.30
2010,09,25,19,49,17.30
2010,09,25,19,50,17.20
2010,09,25,19,51,17.20
2010,09,25,19,52,17.10
2010,09,25,19,53,17.10
2010,09,25,19,54,17.10
2010,09,25,19,55,17.00
2010,09,25,19,56,17.00
2010,09,25,19,57,17.00
2010,09,25,19,58,16.90
2010,09,25,19,59,16.90
2010,09,25,20,00,16.90
2010,09,25,20,01,16.90
2010,09,25,20,02,16.90
2010,09,25,20,03,16.90
2010,09,25,20,04,16.80
2010,09,25,20,05,16.80
2010,09,25,20,06,16.80
2010,09,25,20,07,16.80
2010,09,25,20,08,16.80
2010,09,25,20,09,16.80
2010,09,25,20,10,16.80
2010,09,25,20,11,16.80
2010,09,25,20,12,16.80
2010,09,25,20,13,16.80
2010,09,25,20,14,16.80
2010,09,25,20,15,16.80
2010,09,25,20,16,16.80
2010,09,25,20,17,16.90
2010,09,25,20,18,16.90
2010,09,25,20,19,17.00
2010,09,25,20,20,17.10
2010,09,25,20,21,17.10
2010,09,25,20,22,17.10
2010,09,25,20,23,17.10
2010,09,25,20,24,17.00
2010,09,25,20,25,16.90
2010,09,25,20,26,16.90
2010,09,25,20,27,16.80
2010,09,25,20,28,16.70
2010,09,25,20,29,16.70
2010,09,25,20,30,16.60
2010,09,25,20,31,16.50
2010,09,25,20,32,16.50
2010,09,25,20,33,16.40
2010,09,25,20,34,16.40
2010,09,25,20,35,16.40
2010,09,25,20,36,16.30
2010,09,25,20,37,16.30
2010,09,25,20,38,16.30
2010,09,25,20,39,16.20
2010,09,25,20,40,16.20
2010,09,25,20,41,16.20
2010,09,25,20,42,16.20
2010,09,25,20,43,16.10
2010,09,25,20,44,16.10
2010,09,25,20,45,16.00
2010,09,25,20,46,16.00
2010,09,25,20,47,15.90
2010,09,25,20,48,15.70
2010,09,25,20,49,15.60
2010,09,25,20,50,15.40
2010,09,25,20,51,15.30
2010,09,25,20,52,15.10
2010,09,25,20,53,15.00
2010,09,25,20,54,15.00
2010,09,25,20,55,14.80
2010,09,25,20,56,14.70
2010,09,25,20,57,14.60
2010,09,25,20,58,14.50
2010,09,25,20,59,14.40
2010,09,25,21,00,14.40
2010,09,25,21,01,14.30
2010,09,25,21,02,14.30
2010,09,25,21,03,14.30
2010,09,25,21,04,14.30
2010,09,25,21,05,14.30
2010,09,25,21,06,14.30
2010,09,25,21,07,14.20
2010,09,25,21,08,14.20
2010,09,25,21,09,14.10
2010,09,25,21,10,14.10
2010,09,25,21,11,14.00
2010,09,25,21,12,14.00
2010,09,25,21,13,14.10
2010,09,25,21,14,14.50
2010,09,25,21,15,14.90
2010,09,25,21,16,15.00
2010,09,25,21,17,15.20
2010,09,25,21,18,15.50
2010,09,25,21,19,15.60
2010,09,25,21,20,15.80
2010,09,25,21,21,15.80
2010,09,25,21,22,15.70
2010,09,25,21,23,15.70
2010,09,25,21,24,15.70
2010,09,25,21,25,15.70
2010,09,25,21,26,15.70
2010,09,25,21,27,15.70
2010,09,25,21,28,15.70
2010,09,25,21,29,15.70
2010,09,25,21,30,15.70
2010,09,25,21,31,15.70
